Location: Alsip
(41.6689°N, 87.7387°W)
Time: 13:10:31
(UTC+00:00)

SL-8 R/B - Pass Details

Date: 14 July 2020
Orbit: 656 x 668 km, 48.4° (Epoch: 05 August)

Event Time Altitude Azimuth Distance (km) Brightness Sun altitude
Exits shadow 06:40:25 59° 81° (E) 764 4.0 -25.9°
Drops below altitude 10° 06:44:24 10° 63° (ENE) 2,083 6.7 -25.8°
Sets 06:46:45 0° 62° (ENE) 2,996 7.6 -25.7°
